Temp
25 26 24 22 22 23 23 23 22 22 21 21 20 20 20 20 20 19 19 19 20 19 18 17 17 17 18 18 18 18 18 18 18 19 19 20 21 21 20 20 21 21 20
28 25 24 23 23 23 23 23 22 21 20 20 19 19 19 18 18 18 18 18 18 18 17 17 17 17 18 18 18 18 18 18 18 19 18 19 20 20 20 20 21 21 20
27 25 24 24 23 23 23 22 22 21 20 19 19 19 18 17 17 17 17 17 17 17 17 17 17 17 18 18 18 18 18 18 18 18 18 19 20 20 21 21 21 20 20
28 26 25 25 24 24 23 22 22 21 20 19 19 18 18 18 17 17 17 17 17 17 17 17 17 17 18 18 18 18 18 18 18 18 18 19 20 20 20 20 21 20 20
27 26 26 26 25 24 23 23 22 20 19 19 18 18 18 18 18 17 17 17 17 18 18 18 18 17 17 18 18 18 18 18 18 18 18 19 19 20 20 20 20 20 19
27 27 26 26 25 24 23 23 22 21 20 19 18 18 17 17 17 18 17 17 17 17 18 18 18 17 17 17 18 18 18 17 17 18 18 19 19 19 19 20 20 20 19
27 26 26 26 25 24 24 23 22 21 21 19 18 18 18 18 17 17 17 17 17 17 18 18 18 18 17 17 17 17 18 17 18 18 18 19 19 19 19 19 20 20 19
28 27 26 25 25 24 24 23 22 21 21 20 18 18 18 17 17 17 17 17 17 17 17 17 17 17 17 17 17 17 17 17 17 18 18 19 19 19 19 19 19 20 19
27 26 26 25 25 24 23 22 22 21 21 20 19 18 18 18 17 16 16 16 16 16 16 16 17 17 17 17 17 17 17 17 17 17 18 18 19 19 19 19 19 19 19
26 26 26 25 24 23 22 22 21 21 20 20 19 18 18 17 17 16 15 15 15 16 16 16 16 16 16 16 16 16 16 16 17 17 18 18 19 19 19 19 19 19 19
24 24 25 24 24 23 22 21 21 20 20 19 19 18 17 17 16 16 16 15 15 15 15 15 16 16 16 16 16 16 16 16 17 17 17 18 18 19 18 19 19 19 19
23 24 24 24 23 22 21 21 20 20 20 19 18 18 17 17 16 16 15 15 15 15 15 16 16 16 16 16 16 16 16 16 16 17 17 17 18 18 18 18 19 19 19
25 24 24 23 23 22 21 21 20 20 19 18 18 17 16 16 16 16 15 15 15 15 16 16 16 16 16 16 16 16 16 16 17 17 17 17 17 18 18 18 18 19 19
23 25 24 23 22 21 21 21 21 20 19 18 17 17 16 16 16 16 15 16 15 15 16 16 16 16 15 16 16 16 16 16 16 17 17 17 17 18 18 18 18 18 19
23 24 23 22 21 21 21 21 20 19 18 18 17 17 16 16 16 16 16 16 16 15 16 15 15 15 15 15 15 15 15 16 16 16 16 17 17 18 18 18 18 18 18
24 24 23 22 21 21 21 20 20 19 18 18 17 17 16 16 16 16 16 16 15 16 15 15 15 15 15 15 15 15 15 15 16 16 16 17 17 17 18 18 18 18 18
23 23 23 22 21 22 21 20 19 19 18 18 18 17 16 16 16 16 16 16 16 15 15 15 15 15 15 15 15 15 15 15 16 16 17 17 18 18 18 18 18 18 18
23 23 22 21 22 21 20 20 19 19 18 18 17 17 16 16 16 16 16 16 15 15 15 15 15 15 15 15 15 15 15 16 16 17 17 18 18 18 18 18 18 18 18
23 22 21 21 21 21 20 19 19 19 19 18 18 17 17 16 16 15 15 15 15 15 15 15 15 14 15 15 15 15 16 16 17 17 17 17 18 18 18 18 18 17 18
22 22 22 21 21 20 20 19 19 19 19 19 18 17 17 16 16 15 15 15 15 14 14 14 14 14 15 15 15 16 16 16 17 17 17 17 17 18 18 18 18 17 17
21 21 21 21 20 19 19 18 19 19 19 19 18 17 17 16 16 15 15 15 15 14 15 14 14 14 14 15 15 14 16 16 17 17 17 17 17 17 18 18 18 17 17
19 20 20 20 20 19 19 19 19 19 18 18 18 17 16 16 15 15 15 15 14 14 14 14 13 14 14 15 15 14 15 16 16 17 17 17 16 17 17 17 17 17 16
17 19 20 20 20 19 19 20 19 18 18 18 17 17 16 16 15 15 15 14 14 14 14 14 14 14 14 14 15 15 14 15 14 15 15 15 16 16 16 17 16 16 16
17 20 20 20 20 20 19 19 19 18 17 17 16 16 15 15 15 15 14 14 14 14 14 14 14 15 15 15 15 15 15 15 15 15 15 15 16 16 16 16 16 15 15
19 20 20 20 20 20 20 19 19 18 17 17 16 15 15 15 15 15 15 15 15 15 15 15 15 15 15 16 16 16 15 16 16 16 15 15 15 15 15 16 16 16 15
19 19 19 20 20 20 19 19 19 19 18 17 16 15 15 15 15 15 15 15 15 15 15 15 15 15 15 16 17 17 17 16 16 15 15 15 15 15 15 16 15 15 15
Height
763 768 773 777 780 783 786 788 789 791 793 793 794 796 796 797 798 800 801 802 801 802 801 802 803 805 806 807 808 808 808 810 811 813 814 815 816 817 820 822 823 822 823
757 765 771 775 778 782 785 787 788 790 792 793 794 796 796 797 798 799 800 801 801 802 801 802 804 805 805 806 807 807 808 809 811 812 813 815 815 816 818 821 823 823 823
758 763 769 774 777 780 783 785 787 789 790 791 793 794 795 796 797 798 800 802 802 803 800 799 801 803 803 804 806 806 807 809 809 811 812 813 814 815 817 819 821 823 823
757 761 766 770 773 776 780 783 786 788 790 792 792 793 794 795 796 797 797 800 801 803 801 800 801 801 802 802 804 805 806 808 809 809 810 811 813 814 816 817 819 821 822
756 760 763 767 771 774 778 781 783 786 788 790 791 792 793 793 793 795 794 797 799 800 800 799 799 800 800 801 802 803 805 807 806 808 808 809 811 812 814 816 818 820 822
753 757 761 765 768 772 775 778 781 783 785 787 788 791 792 791 791 793 791 794 796 797 798 798 798 798 798 799 800 801 803 804 805 806 806 808 808 810 812 814 815 817 819
751 755 758 764 768 769 772 775 778 781 782 784 786 787 788 789 790 791 790 791 792 793 794 795 795 794 795 798 798 799 799 802 802 803 804 806 806 808 810 812 814 814 817
750 753 757 762 766 768 769 772 775 778 780 781 783 785 785 785 788 788 788 788 789 789 790 792 793 793 793 793 793 796 797 798 800 801 802 803 804 805 807 809 811 813 815
750 753 757 760 763 767 769 770 773 775 778 779 780 782 782 783 785 785 784 785 785 786 786 787 788 789 789 789 791 793 796 795 798 799 801 801 802 803 805 807 809 811 813
750 753 754 756 759 762 767 769 771 773 774 776 778 779 781 781 782 781 781 780 780 781 782 783 783 784 785 786 789 791 793 795 796 797 797 798 799 801 802 804 806 808 811
748 750 752 754 756 760 765 769 770 771 772 774 776 777 778 779 779 779 778 777 777 778 778 779 780 780 781 783 785 787 790 792 793 792 795 795 797 798 799 800 803 805 809
742 745 749 751 753 757 762 766 768 769 771 772 774 775 776 776 777 777 776 776 776 776 776 776 776 776 778 779 781 785 787 789 790 790 791 793 795 795 797 797 799 802 806
735 741 743 746 752 755 758 762 766 768 769 770 772 772 773 774 774 774 774 774 774 774 774 773 773 773 774 776 777 780 783 785 785 787 789 790 791 793 794 795 795 799 802
730 733 738 743 749 754 757 759 763 766 767 768 769 769 770 770 771 771 771 771 771 771 771 771 771 771 772 773 775 778 781 783 784 785 786 788 789 790 791 791 793 796 800
726 730 734 740 745 751 755 758 760 763 765 765 765 766 766 766 766 767 767 768 768 769 769 769 769 769 770 772 774 777 779 781 782 783 784 786 786 787 788 789 790 794 797
719 725 732 739 745 749 753 756 758 760 762 762 762 763 763 763 763 763 763 764 765 765 766 767 767 768 769 770 772 775 777 778 779 781 782 783 784 785 786 787 788 791 794
712 723 730 736 743 747 752 754 756 757 758 759 759 759 758 758 758 759 759 759 760 762 763 764 765 766 767 768 770 772 775 776 777 778 780 780 782 783 784 785 786 786 791
711 719 727 734 740 746 749 752 754 755 755 756 756 755 755 754 754 755 755 755 757 759 760 761 762 763 765 766 768 770 772 774 775 776 777 778 780 781 782 783 784 783 779
706 715 725 732 738 744 748 751 752 753 753 753 751 751 750 750 751 752 752 754 755 755 756 757 759 761 763 765 767 769 771 772 773 774 775 777 779 781 781 781 783 785 785
705 713 723 730 736 742 746 749 750 750 750 749 748 747 747 747 747 748 749 750 752 753 754 756 758 760 762 764 766 767 769 770 772 773 775 776 778 781 780 779 782 786 790
705 712 719 727 735 740 743 746 747 746 746 746 745 745 745 745 745 745 747 748 749 751 752 754 756 758 761 763 765 766 768 769 771 773 774 775 777 780 779 780 781 785 790
697 708 718 726 733 737 741 742 742 744 744 744 743 742 742 742 742 743 744 746 747 749 750 752 754 756 760 762 763 765 769 770 770 772 772 774 776 778 779 781 782 784 792
699 707 716 725 731 736 739 739 740 742 742 741 741 740 741 740 740 741 743 745 746 748 749 750 752 755 757 760 762 764 769 770 771 772 773 774 776 778 780 782 785 789 794
701 709 716 725 731 735 736 738 740 740 741 740 739 740 739 739 739 741 743 744 745 747 748 750 752 755 756 758 761 762 762 765 768 773 774 776 778 779 781 784 786 791 797
703 710 717 724 730 732 735 737 739 739 740 739 739 739 739 739 740 742 743 744 746 747 748 749 751 753 756 757 759 760 763 763 763 767 775 777 778 780 782 786 789 793 790
705 712 719 724 728 731 734 736 738 739 738 738 738 738 738 739 740 742 744 745 746 747 747 749 751 753 756 757 758 760 763 764 765 766 772 777 779 782 784 786 790 793 796
Wind_Speed
36 31 33 29 25 21 18 15 14 12 10 9 8 7 6 6 5 5 5 6 5 6 5 4 4 6 5 5 5 5 6 6 7 7 8 7 11 7 9 9 13 17 17
37 29 36 31 26 22 20 17 16 14 13 12 10 9 8 7 7 7 7 7 7 8 6 5 6 6 7 7 7 6 6 6 6 8 8 8 10 12 9 10 13 16 19
35 28 38 32 27 24 22 20 18 17 17 16 13 12 11 11 11 11 10 10 9 10 9 7 7 8 8 8 8 7 7 7 6 8 7 9 6 12 12 12 14 17 21
35 28 38 34 29 27 24 21 19 19 18 17 16 15 15 15 15 14 12 12 12 13 11 10 10 9 10 9 9 9 9 8 8 7 8 8 6 9 12 14 16 20 21
31 29 34 34 30 27 25 23 21 20 19 18 17 16 16 17 17 19 15 15 15 15 14 13 12 12 11 11 11 11 11 10 8 7 10 8 7 9 12 11 16 22 20
29 31 32 34 31 27 26 23 21 19 19 19 17 17 18 18 18 18 16 18 18 17 16 15 15 15 14 13 13 14 13 11 10 10 10 9 7 9 12 14 14 19 22
31 33 33 33 30 28 26 23 21 18 17 17 17 17 18 17 17 18 18 21 18 18 18 18 17 18 17 16 14 15 15 12 11 12 11 11 9 9 12 16 15 19 22
31 33 33 32 29 27 26 23 20 17 15 13 14 15 16 15 16 18 17 17 18 18 18 19 19 20 20 18 16 16 15 12 11 12 12 12 10 10 12 16 18 18 22
31 33 32 31 29 27 25 23 20 17 14 12 13 14 13 13 15 16 16 17 18 18 19 20 20 21 19 17 17 17 16 13 12 13 13 13 12 11 12 15 19 21 23
30 32 33 32 31 29 26 23 20 17 14 12 12 11 11 11 12 12 12 13 15 17 19 20 21 22 21 18 19 17 16 14 12 13 14 15 15 13 14 15 19 21 23
28 31 33 33 31 29 26 22 18 17 14 14 13 11 11 10 9 10 11 11 10 11 13 16 19 23 22 19 17 17 16 16 16 14 15 15 16 15 15 16 20 22 23
32 33 35 35 33 29 25 22 18 15 14 15 15 13 13 11 10 9 10 10 11 12 13 15 14 18 18 21 21 19 18 17 16 17 16 16 16 15 15 17 20 24 25
40 37 38 36 33 29 26 22 17 15 15 16 16 16 16 14 12 12 12 13 12 13 13 13 14 12 17 20 21 21 19 17 17 17 16 16 16 16 15 16 19 26 27
36 41 40 37 33 29 24 21 16 14 15 17 18 17 18 17 16 15 14 12 12 10 11 10 9 10 14 16 19 21 21 19 18 16 16 16 17 16 16 15 18 25 29
38 39 38 36 33 28 23 19 16 14 16 15 15 15 18 18 18 17 16 14 13 12 11 9 8 8 10 13 16 19 19 18 18 17 16 17 17 16 16 16 19 23 28
39 39 34 33 31 27 23 18 14 14 13 13 15 16 18 18 18 18 17 17 14 12 11 9 9 8 10 12 15 17 17 15 15 15 13 16 16 16 15 15 20 23 28
37 32 30 33 30 26 21 15 14 13 13 16 17 16 17 18 18 18 18 18 15 11 11 11 10 8 9 11 14 15 15 13 14 14 13 13 13 14 14 14 17 22 30
29 26 30 32 29 23 18 16 15 14 13 17 17 16 16 16 16 17 16 15 13 12 12 13 10 10 9 10 13 14 14 12 12 13 12 10 12 11 10 13 10 11 11
28 27 34 32 28 23 18 17 14 12 12 13 12 13 13 14 15 14 14 13 12 11 11 11 11 11 10 10 12 14 13 13 11 11 10 8 8 7 8 9 8 8 13
25 31 35 31 26 22 18 15 12 11 11 10 10 10 10 11 12 13 12 11 11 10 10 11 11 11 10 10 10 10 10 10 10 10 10 8 8 8 7 10 8 10 18
29 36 36 30 25 23 19 14 11 7 8 9 9 8 8 9 9 10 10 10 10 12 10 11 12 13 12 6 5 3 3 3 4 6 8 7 9 8 8 7 12 15 21
38 39 34 28 25 23 18 11 4 4 5 8 9 7 7 6 7 9 8 7 7 10 10 10 12 12 9 10 4 4 2 1 2 5 4 5 6 5 4 9 13 25 28
32 37 32 27 24 20 13 7 4 3 4 7 6 5 5 4 4 6 8 7 6 8 8 10 13 12 8 9 7 4 2 2 2 2 2 2 3 2 6 16 21 27 31
27 34 29 25 22 17 11 7 4 2 3 4 4 4 1 1 1 2 7 7 6 7 7 10 12 11 10 9 10 8 2 4 2 2 4 3 2 5 12 22 25 28 36
33 31 27 23 19 15 11 7 4 1 3 3 2 1 2 2 3 3 4 6 5 4 6 8 11 12 10 11 13 10 4 1 4 3 2 3 6 9 15 17 23 29 23
30 28 25 22 19 15 11 7 3 2 2 2 2 3 2 4 5 5 6 6 5 2 5 6 8 11 10 7 11 13 7 2 4 3 3 4 6 7 15 24 29 29 38
Wind_Direction
194 188 189 187 189 190 189 192 193 193 195 201 209 214 214 218 230 254 267 273 278 285 282 276 265 256 258 266 269 274 278 286 282 287 288 269 239 229 234 220 194 178 169
184 187 192 192 193 193 198 202 203 204 203 208 212 219 230 235 242 252 259 267 275 277 273 267 257 254 252 259 263 269 274 285 293 279 302 285 251 232 231 221 208 190 178
178 185 192 196 196 199 203 208 211 210 210 213 216 223 227 231 232 235 239 249 260 266 273 270 264 255 252 250 257 262 272 277 284 282 303 295 273 238 230 222 214 205 186
180 182 192 197 198 202 205 211 215 216 218 221 223 222 224 227 235 235 236 246 251 257 258 264 264 261 254 250 250 255 265 269 276 281 277 290 266 234 225 219 215 206 190
185 191 194 197 199 203 206 212 214 219 223 223 221 223 229 234 233 232 235 246 251 254 254 256 258 259 255 250 249 252 256 264 267 273 261 271 271 239 227 222 216 206 191
186 194 195 198 199 203 207 213 216 220 226 233 229 232 242 238 241 247 244 244 247 252 259 260 259 255 253 251 248 245 248 253 253 256 263 260 264 242 228 224 213 208 184
189 195 195 197 203 202 206 212 216 220 230 239 234 236 246 254 252 250 249 248 246 248 254 259 261 260 258 249 248 248 247 251 243 254 261 254 260 244 227 225 221 212 205
190 193 195 198 204 207 206 208 212 218 223 236 239 242 247 251 257 258 257 255 253 252 257 260 259 259 262 253 251 249 247 249 235 246 253 252 253 248 235 224 223 218 208
194 193 196 200 204 210 210 206 209 211 217 229 239 244 247 253 260 262 263 260 260 259 257 257 258 259 259 253 247 245 247 243 246 242 246 250 246 246 241 226 223 219 213
196 198 199 201 204 208 210 208 208 209 215 227 234 234 243 261 262 268 265 260 257 256 256 258 261 259 256 251 246 242 242 241 245 246 247 250 244 246 240 230 222 221 213
202 205 204 203 204 207 209 209 210 213 222 226 230 235 250 256 277 267 261 267 268 262 256 254 255 254 254 251 243 237 237 241 244 246 248 252 246 249 247 237 224 219 213
208 208 208 207 205 202 204 207 211 215 230 228 228 240 252 258 278 261 261 260 261 263 268 262 275 248 247 243 235 232 230 238 244 246 250 255 251 251 251 238 228 218 212
212 212 209 208 206 202 200 204 211 221 233 232 234 243 245 246 263 250 258 253 260 259 271 272 273 258 242 237 233 229 229 241 244 246 251 255 257 253 250 245 231 217 212
213 215 211 206 205 203 202 203 213 231 235 236 242 248 243 244 253 247 252 256 256 254 262 269 271 261 241 235 228 226 228 242 250 249 255 257 257 254 249 246 229 215 210
216 215 211 205 203 200 200 202 216 224 231 240 245 242 239 247 250 248 252 253 250 257 257 258 265 256 244 231 223 224 235 246 248 251 257 261 256 256 251 246 233 217 207
220 221 213 206 200 198 197 208 213 221 232 239 242 245 244 250 250 252 255 251 248 254 251 257 269 259 243 230 223 227 236 247 247 250 265 261 249 254 253 257 241 226 207
219 217 206 199 190 189 200 204 207 218 232 243 251 254 250 251 252 254 258 252 242 250 246 250 250 251 243 229 228 229 236 251 250 251 268 265 247 253 255 271 256 227 204
214 206 195 184 181 189 195 198 210 224 243 256 260 261 260 255 251 248 251 247 242 249 247 241 251 247 242 230 228 230 243 253 256 260 270 245 255 253 261 280 250 240 197
204 191 182 178 180 188 190 202 215 232 251 267 269 269 263 254 249 245 248 248 244 250 241 243 248 240 238 230 231 241 245 254 253 259 239 252 238 255 278 269 229 220 186
190 182 176 176 182 186 193 207 222 240 254 277 285 280 267 252 249 246 244 243 242 246 237 233 233 227 230 228 224 231 242 247 248 249 245 250 241 242 266 271 249 214 198
176 174 174 177 182 187 196 203 223 240 259 287 292 276 265 265 252 246 245 239 230 237 239 236 227 213 212 201 189 170 167 203 229 239 242 249 249 251 266 259 241 192 176
171 174 173 178 184 189 194 201 218 258 274 287 297 285 264 272 254 245 233 223 230 224 231 225 201 190 201 197 147 125 83 59 148 219 231 221 242 258 263 200 192 169 157
162 169 169 176 183 186 189 193 206 243 282 292 308 304 277 271 267 245 222 215 219 226 226 206 191 192 171 181 185 147 134 181 131 60 120 129 167 265 164 178 169 158 160
158 167 169 174 179 181 183 188 195 226 293 291 319 306 264 113 139 185 196 212 221 208 207 194 189 193 186 167 191 207 162 155 148 137 88 167 200 184 161 164 162 157 153
162 166 169 172 176 177 177 190 193 259 280 294 303 279 198 157 146 162 173 167 170 197 201 189 197 196 197 193 181 198 217 280 121 131 133 145 155 175 185 161 155 166 143
164 165 169 171 174 178 185 194 200 243 244 279 306 273 257 203 170 153 150 141 138 156 159 182 201 207 213 213 206 203 197 140 178 138 126 137 144 132 140 146 155 147 140